This is the latest recevied weather packets stored in our database for station/object K4WCH. If no packets are shown the sender has not sent any weather packets the latest 10 day(s).
| Time | Temp. | Humidity | Pressure | Rain* | Wind** | Luminosity | Snow |
|---|---|---|---|---|---|---|---|
| 1787924830 | 28.89° C | 74% | 1018.6 hPa | 0 mm | - | 511 W/m² | - |
| 1787924525 | 28.89° C | 75% | 1018.5 hPa | 0 mm | - | 499 W/m² | - |
| 1787924221 | 28.33° C | 78% | 1018.5 hPa | 0 mm | - | 475 W/m² | - |
| 1787923921 | 28.33° C | 79% | 1018.5 hPa | 0 mm | - | 454 W/m² | - |
| 1787923615 | 27.78° C | 78% | 1018.6 hPa | 0 mm | - | 430 W/m² | - |
| 1787923311 | 27.78° C | 80% | 1018.5 hPa | 0 mm | - | 398 W/m² | - |
| 1787923010 | 27.78° C | 80% | 1018.5 hPa | 0 mm | - | 372 W/m² | - |
| 1787922705 | 27.78° C | 83% | 1018.4 hPa | 0 mm | - | 349 W/m² | - |
| 1787922405 | 27.78° C | 82% | 1018.3 hPa | 0 mm | - | 327 W/m² | - |
| 1787922103 | 27.22° C | 84% | 1018.3 hPa | 0 mm | - | 264 W/m² | - |
| 1787921802 | 26.67° C | 86% | 1018.3 hPa | 0 mm | - | 238 W/m² | - |
| 1787921502 | 26.67° C | 86% | 1018.2 hPa | 0 mm | - | 238 W/m² | - |
| 1787921196 | 26.67° C | 87% | 1018.2 hPa | 0 mm | - | 245 W/m² | - |
| 1787920892 | 26.11° C | 89% | 1018.4 hPa | 0 mm | - | 227 W/m² | - |
| 1787920587 | 26.11° C | 89% | 1018.3 hPa | 0 mm | - | 173 W/m² | - |
| 1787920281 | 25.56° C | 89% | 1018.1 hPa | 0 mm | - | 147 W/m² | - |
| 1787919980 | 25.56° C | 92% | 1018.2 hPa | 0 mm | - | 132 W/m² | - |
| 1787919679 | 25° C | 98% | 1018.4 hPa | 0 mm | - | 114 W/m² | - |
| 1787919374 | 24.44° C | 99% | 1018.2 hPa | 0 mm | - | 101 W/m² | - |
| 1787919070 | 23.89° C | 99% | 1018 hPa | 0 mm | - | 57 W/m² | - |
| 1787918770 | 23.89° C | 99% | 1017.9 hPa | 0 mm | - | 76 W/m² | - |
| 1787918464 | 23.33° C | 99% | 1018.2 hPa | 0 mm | - | 46 W/m² | - |
| 1787918162 | 23.33° C | 99% | 1017.8 hPa | 0 mm | - | 44 W/m² | - |
| 1787917857 | 22.78° C | 99% | 1018 hPa | 0 mm | - | 46 W/m² | - |
| 1787917553 | 22.78° C | 99% | 1017.9 hPa | 0 mm | - | 39 W/m² | - |
* Rain latest hour (hover to see other rain measurements)
** Current wind speed in m/s (hover to see current wind gust speed)